User: anonymous   Login
Location: *
(49.7115°N, 15.0136°E)
Time: 06:31:31
(UTC+00:00)
Language:

CZ-2D R/B - Orbit

View from above orbital plane
View from above orbital plane
View from above satellite
View from above satellite

Ground track
Ground track

The orbit data is extracted from the following two-line orbital elements,

1 28738U 05024B   20156.54245531 +.00000368 +00000-0 +25026-4 0  9998
2 28738 097.3832 179.5450 0010736 222.4890 137.5511 15.12034272819454
Epoch (UTC): 04 June 2020 13:01:08
Eccentricity: 0.0010736
inclination: 97.3832°
perigee height: 522 km
apogee height: 537 km
right ascension of ascending node: 179.5450°
argument of perigee: 222.4890°
revolutions per day: 15.12034272
mean anomaly at epoch: 137.5511°
orbit number at epoch: 81945

The dashed part of the orbit path shows where the satellite is in the earth's shadow,  

DLR